TimeCST,TemperatureF,Dew PointF,Humidity,Sea Level PressureIn,VisibilityMPH,Wind Direction,Wind SpeedMPH,Gust SpeedMPH,PrecipitationIn,Events,Conditions,WindDirDegrees,DateUTC
12:53 AM,23.0,19.0,85,30.25,10.0,Calm,Calm,-,N/A,,Clear,0,2013-02-08 06:53:00
1:53 AM,21.9,19.0,89,30.25,10.0,Calm,Calm,-,N/A,,Clear,0,2013-02-08 07:53:00
2:53 AM,25.0,21.0,85,30.25,10.0,Calm,Calm,-,N/A,,Clear,0,2013-02-08 08:53:00
3:53 AM,23.0,19.9,88,30.24,10.0,East,5.8,-,N/A,,Clear,80,2013-02-08 09:53:00
4:53 AM,24.1,21.0,88,30.24,10.0,Calm,Calm,-,N/A,,Clear,0,2013-02-08 10:53:00
5:53 AM,23.0,21.0,92,30.24,10.0,ESE,4.6,-,N/A,,Clear,110,2013-02-08 11:53:00
6:53 AM,24.1,21.0,88,30.25,10.0,East,4.6,-,N/A,,Clear,80,2013-02-08 12:53:00
7:53 AM,21.9,19.9,92,30.26,10.0,East,5.8,-,N/A,,Clear,100,2013-02-08 13:53:00
8:53 AM,27.0,24.1,89,30.27,9.0,ESE,4.6,-,N/A,,Clear,110,2013-02-08 14:53:00
9:53 AM,39.0,30.0,70,30.27,10.0,South,10.4,-,N/A,,Clear,180,2013-02-08 15:53:00
10:53 AM,46.9,27.0,46,30.22,10.0,South,16.1,21.9,N/A,,Clear,170,2013-02-08 16:53:00
11:53 AM,50.0,25.0,38,30.19,10.0,South,18.4,-,N/A,,Clear,180,2013-02-08 17:53:00
12:53 PM,52.0,26.1,37,30.16,10.0,South,18.4,26.5,N/A,,Clear,180,2013-02-08 18:53:00
1:53 PM,55.9,24.1,29,30.11,10.0,South,20.7,36.8,N/A,,Clear,190,2013-02-08 19:53:00
2:53 PM,52.0,24.1,34,30.08,10.0,South,21.9,29.9,N/A,,Clear,170,2013-02-08 20:53:00
3:53 PM,54.0,23.0,30,30.06,10.0,South,23.0,33.4,N/A,,Clear,180,2013-02-08 21:53:00
4:53 PM,52.0,23.0,32,30.05,10.0,South,23.0,34.5,N/A,,Clear,180,2013-02-08 22:53:00
5:53 PM,48.9,23.0,36,30.04,10.0,SSE,13.8,24.2,N/A,,Clear,160,2013-02-08 23:53:00
6:53 PM,44.1,24.1,45,30.04,10.0,SE,12.7,-,N/A,,Clear,140,2013-02-09 00:53:00
7:53 PM,41.0,26.1,55,30.03,10.0,SSE,13.8,-,N/A,,Clear,150,2013-02-09 01:53:00
8:53 PM,39.9,27.0,60,30.02,10.0,SSE,15.0,24.2,N/A,,Clear,160,2013-02-09 02:53:00
9:53 PM,39.0,26.1,60,30.01,10.0,SSE,10.4,18.4,N/A,,Clear,160,2013-02-09 03:53:00
10:53 PM,39.0,25.0,57,29.98,10.0,South,12.7,-,N/A,,Clear,170,2013-02-09 04:53:00
11:53 PM,37.9,25.0,60,29.96,10.0,South,17.3,25.3,N/A,,Clear,180,2013-02-09 05:53:00